Temperature
18 18 18 17 17 17 17 17 17 16 16 16 16 16 15 15 15 15 15 15 15 15 15 15 15 15 15 15 15 15 15 15 15 15 14 14 14 14 14 14 14 15 14
18 18 18 18 17 17 17 17 17 17 16 16 16 16 15 15 15 15 15 15 15 15 15 15 15 15 15 15 15 15 15 15 15 15 15 14 14 14 14 14 14 14 14
18 18 18 18 18 17 17 17 17 17 16 16 16 16 15 15 15 15 15 15 15 15 15 15 15 15 15 15 15 15 15 15 15 15 15 15 14 13 13 13 14 14 14
18 18 18 18 18 17 17 17 17 17 16 16 16 16 16 15 15 15 15 15 15 15 15 15 15 15 15 15 15 15 15 15 15 15 15 14 14 14 13 13 13 13 13
19 18 18 18 18 18 17 17 17 17 16 16 16 16 16 16 15 15 15 15 15 15 14 14 15 15 15 14 15 15 15 15 14 14 14 14 14 14 14 13 13 13 13
19 19 19 18 18 18 17 17 17 17 16 16 16 16 16 16 15 15 15 15 15 14 14 14 14 14 14 14 14 14 14 14 14 14 14 14 14 14 14 13 13 13 13
19 19 18 18 18 18 17 17 17 17 17 16 16 16 16 16 15 15 15 15 15 15 14 14 14 14 14 14 14 14 14 14 14 14 14 14 14 14 14 14 13 13 13
19 19 19 18 18 18 18 17 17 17 17 17 16 16 16 16 16 15 15 15 15 15 14 14 14 14 14 14 14 14 14 14 14 14 14 14 14 14 14 14 13 13 13
19 19 19 19 18 18 18 18 17 17 17 17 17 16 16 16 16 15 15 15 15 14 14 14 14 14 14 14 14 14 14 14 14 14 14 14 14 13 13 13 13 13 13
19 19 19 19 18 18 18 18 17 17 17 17 17 16 16 16 16 16 15 15 15 14 14 14 14 14 14 14 14 14 14 14 14 13 13 13 13 13 13 13 13 13 13
19 19 19 19 19 18 18 18 18 17 17 17 17 16 16 16 16 15 15 15 15 14 14 14 14 14 14 13 14 13 13 13 13 13 13 13 13 13 13 13 13 13 12
19 19 19 19 19 18 18 18 18 17 17 17 17 16 16 16 16 15 15 15 15 14 14 14 14 14 14 13 13 13 13 13 13 13 13 13 13 13 13 13 13 13 12
19 19 19 19 19 19 18 18 18 17 17 17 17 16 16 16 16 15 15 15 15 15 14 14 14 14 13 13 13 13 13 13 13 13 13 13 13 13 13 13 13 12 12
19 19 19 19 19 19 18 18 18 17 17 17 17 16 16 16 16 15 15 15 15 15 14 14 14 14 13 13 13 13 13 13 13 13 13 13 13 13 13 12 12 12 12
19 19 19 19 19 19 19 18 18 18 17 17 17 17 16 16 15 15 15 15 15 15 14 14 14 13 13 13 13 13 13 13 13 13 13 13 12 12 12 12 12 12 12
19 19 19 19 19 19 19 19 18 18 17 17 17 17 16 16 16 15 15 15 15 14 14 14 14 14 13 13 13 13 13 13 13 13 13 12 12 12 12 12 12 11 11
20 20 20 20 19 19 19 19 18 18 18 17 17 17 16 16 16 16 15 15 15 15 14 14 14 14 13 13 13 13 13 13 13 13 12 12 12 12 12 12 11 11 11
20 20 20 20 19 19 19 18 18 18 17 17 17 16 16 16 16 15 15 15 15 15 14 14 14 14 14 13 13 13 13 13 13 13 12 12 12 12 11 11 11 11 11
20 20 20 20 19 19 19 18 18 18 17 17 17 16 16 16 16 15 15 15 15 15 14 14 14 14 14 13 13 13 13 13 13 12 12 12 12 12 11 11 11 11 10
20 20 20 19 19 19 18 18 18 18 17 17 17 16 16 16 15 15 15 15 15 14 14 14 14 14 14 13 13 13 13 12 12 12 12 12 12 11 11 11 10 10 10
20 20 20 19 19 19 18 18 18 18 17 17 16 16 16 15 15 15 15 15 14 14 14 14 14 13 13 13 13 12 12 12 12 12 12 12 11 11 11 10 10 10 10
20 19 19 19 19 18 18 18 18 18 17 17 16 16 16 15 15 15 15 14 14 14 14 13 13 13 13 13 13 12 12 12 12 12 11 11 11 11 10 10 10 10 9
19 19 19 19 18 18 18 18 17 17 17 16 16 16 16 15 15 15 14 14 14 14 13 13 13 13 13 13 12 12 12 11 11 11 11 11 10 10 10 10 10 9 9
19 19 18 18 18 17 17 17 17 17 16 16 16 16 15 15 15 14 14 14 14 13 13 13 13 13 12 12 12 12 11 11 11 10 10 10 10 10 9 9 9 9 9
18 18 18 18 17 17 17 17 16 16 16 16 15 15 15 15 14 14 14 14 13 13 13 13 12 12 12 12 11 11 11 11 10 10 10 9 9 9 9 9 9 9 8
18 18 17 17 17 17 17 16 16 16 16 16 15 15 15 14 14 14 13 13 13 13 12 12 12 12 12 11 11 11 10 10 10 9 9 9 9 9 9 9 8 8 8
Wind_Speed
4 4 4 5 5 4 5 5 5 4 4 3 3 3 2 2 3 6 8 8 9 9 8 6 6 6 5 4 4 3 5 5 3 4 4 5 6 8 7 7 8 10 12
4 5 5 5 5 5 5 4 5 5 3 3 2 2 2 2 2 3 7 9 8 8 7 6 4 4 4 6 5 4 3 4 4 3 3 3 5 5 7 6 7 7 10
9 7 6 6 5 5 6 5 4 4 3 4 4 3 3 3 3 3 3 6 7 8 8 7 6 5 4 4 4 4 4 3 4 4 3 4 1 2 4 5 6 6 6
8 8 7 7 7 6 5 5 5 4 4 5 5 4 3 1 0 1 1 3 6 7 7 8 7 6 4 4 4 4 3 3 3 3 4 3 3 3 2 3 4 6 7
9 9 9 8 7 6 5 5 4 4 4 4 5 5 3 2 1 1 2 3 4 6 6 7 7 6 5 4 5 5 5 3 3 2 2 3 4 3 3 1 3 4 4
9 9 7 6 5 5 5 5 5 4 3 4 4 5 5 4 3 1 1 2 2 3 5 6 6 5 5 4 5 5 6 5 5 4 3 2 2 2 3 2 1 2 3
10 9 9 8 7 7 6 6 6 4 4 4 4 5 5 5 5 3 2 1 1 1 2 3 3 4 4 5 5 5 5 5 5 4 3 3 2 2 2 3 2 2 2
11 11 11 10 9 8 8 7 7 5 5 5 5 4 5 4 3 3 3 3 2 1 0 2 3 4 5 5 5 4 4 4 5 5 4 3 3 2 2 2 3 2 3
12 11 10 9 9 9 9 9 8 6 5 5 5 4 4 4 4 3 3 2 2 1 2 3 3 4 5 5 5 4 3 4 4 4 4 3 3 3 2 2 3 3 2
9 9 9 9 9 8 7 7 7 7 6 5 5 4 4 4 4 4 4 3 2 2 3 3 3 3 4 4 5 3 3 4 3 3 4 4 2 3 3 2 2 2 3
10 10 9 8 7 6 6 7 6 6 5 6 5 5 4 4 4 4 4 3 3 3 3 3 3 3 3 3 4 3 3 4 3 3 3 3 2 3 3 2 2 2 2
9 8 8 8 7 7 7 7 6 6 6 5 5 5 4 5 4 4 4 3 4 4 4 4 4 3 3 3 4 3 3 3 2 2 3 2 2 3 2 2 2 2 1
7 6 7 8 8 8 7 7 7 6 5 5 5 5 5 5 5 4 4 3 4 4 4 4 4 4 4 3 3 3 3 2 2 2 2 1 2 2 1 2 2 1 1
7 7 7 8 8 8 8 8 7 6 6 6 6 6 6 6 5 5 4 4 4 5 5 4 4 4 4 4 3 3 3 2 2 1 2 2 2 2 1 1 1 1 2
7 8 9 8 7 7 7 7 6 6 7 6 6 6 5 4 4 4 4 4 4 5 5 4 4 3 3 4 5 4 4 3 2 1 1 1 2 2 2 1 1 2 1
8 8 8 8 8 8 8 7 7 7 7 7 7 5 5 5 5 5 4 4 4 3 4 4 4 4 4 6 7 6 4 4 3 2 1 1 1 1 1 1 2 2 2
8 9 9 10 9 9 9 9 8 7 7 7 6 6 6 6 5 5 5 5 4 4 4 4 4 4 5 6 7 8 5 4 3 3 2 1 1 1 1 0 1 1 0
7 8 8 8 7 7 7 7 6 7 7 7 6 6 6 6 5 5 5 5 4 4 4 4 4 4 4 6 7 7 4 3 3 3 4 3 2 2 3 2 0 1 2
6 7 7 7 6 7 7 7 7 6 7 7 7 7 7 7 6 6 6 5 4 4 4 4 4 4 5 6 7 6 3 3 3 3 3 4 4 4 4 2 2 2 3
4 4 4 5 5 6 7 8 7 7 8 8 8 7 7 8 8 7 6 4 4 5 4 3 4 5 4 6 6 6 3 3 2 2 2 4 5 5 4 3 3 4 5
3 4 5 5 5 6 8 8 7 8 8 6 6 6 7 7 7 6 4 4 4 4 3 3 3 3 4 5 6 6 4 5 4 3 3 4 6 6 6 5 4 6 5
3 4 5 4 4 6 8 7 7 6 4 5 6 6 6 6 5 6 5 4 5 5 4 3 2 2 3 4 5 7 7 6 4 4 4 4 6 6 6 5 6 7 5
3 3 4 4 3 5 7 7 5 4 6 6 5 5 5 4 5 6 6 4 4 4 4 4 4 4 3 3 6 7 8 8 5 4 6 6 6 6 5 6 7 5 3
3 3 4 4 3 3 4 5 4 6 6 6 5 5 5 4 4 4 5 5 5 5 5 5 5 4 3 3 3 3 4 5 5 4 4 6 6 4 5 5 4 3 3
2 3 4 4 3 3 3 3 5 6 6 6 5 4 4 4 4 4 4 6 6 7 7 6 6 5 5 7 8 6 5 5 5 3 1 1 2 3 3 3 3 3 3
3 3 3 2 2 2 2 3 4 6 7 5 4 4 4 4 3 3 1 3 4 6 7 7 6 6 8 7 8 9 9 8 6 3 2 3 4 5 5 5 4 4 5
Wind_Direction
194 167 158 146 137 133 129 134 130 126 117 98 88 76 51 26 29 36 44 50 56 58 61 56 45 45 56 53 56 72 65 47 31 71 53 35 40 43 37 36 40 39 41
175 172 168 163 160 157 149 146 150 150 144 119 115 113 105 64 38 30 40 40 50 55 60 58 53 47 57 52 46 58 79 49 32 82 87 41 18 19 27 31 39 34 37
186 184 180 182 172 172 172 167 168 162 149 127 106 82 59 41 29 19 15 20 46 57 61 61 63 55 60 61 50 54 83 82 41 47 106 117 125 5 7 23 34 33 34
187 184 184 184 187 189 175 165 164 161 153 144 139 134 126 116 359 346 10 22 44 55 61 64 64 60 57 60 54 58 69 93 73 46 46 82 129 118 55 3 13 30 36
187 189 190 190 188 179 169 164 154 155 157 154 151 136 127 133 103 55 52 31 29 44 55 63 65 61 57 57 57 59 61 70 86 80 72 67 60 70 110 69 354 9 14
190 191 188 176 176 168 162 160 156 162 163 158 154 153 152 152 135 109 78 32 18 23 42 61 64 65 63 61 61 65 67 68 75 72 70 88 95 88 100 113 50 2 340
186 185 181 180 181 177 174 171 167 177 178 169 171 170 166 167 171 172 159 140 60 20 4 59 69 70 75 76 73 68 64 65 73 73 68 68 78 107 113 113 104 41 346
189 190 190 187 186 183 180 178 180 187 185 181 183 177 170 170 180 180 169 168 180 196 127 92 85 81 84 86 80 70 69 69 71 70 68 66 54 68 94 121 125 77 16
190 192 189 188 187 186 190 188 186 188 190 187 178 177 175 176 183 178 167 171 184 172 127 110 101 91 89 92 91 74 67 73 68 67 66 62 44 54 66 88 115 127 90
185 187 185 188 190 189 190 188 187 189 187 182 182 183 185 184 178 165 166 172 178 153 137 121 113 106 98 99 95 83 78 82 69 71 71 61 46 52 57 74 81 99 133
184 186 185 185 182 178 180 187 188 183 182 184 184 178 184 178 169 171 178 179 176 161 154 147 134 128 120 114 105 98 92 90 74 64 76 66 64 66 57 66 74 76 105
182 180 177 169 171 180 187 192 189 188 190 183 179 184 178 169 171 180 186 182 175 169 160 152 143 142 139 133 127 128 111 112 107 93 87 69 73 63 57 70 75 79 99
172 168 169 176 181 188 191 192 192 193 185 173 172 175 176 178 185 188 182 179 175 170 162 155 157 158 156 149 150 150 144 141 146 145 132 124 100 73 60 70 74 65 72
173 174 179 185 189 193 193 192 194 185 175 171 172 179 187 190 188 181 174 172 167 163 167 167 170 168 165 166 163 156 150 147 154 165 158 161 162 170 154 106 101 95 77
181 186 189 191 193 194 194 193 191 181 174 171 179 191 188 178 168 166 169 165 164 169 165 162 166 169 173 182 174 167 166 165 170 178 186 191 191 183 167 151 160 134 108
197 196 194 193 195 197 196 192 190 184 174 179 190 185 169 165 169 171 164 160 165 161 156 166 170 181 200 194 183 172 170 176 181 191 218 231 242 226 195 170 160 151 152
201 196 196 199 201 199 193 192 191 176 175 183 183 175 172 172 177 171 160 169 175 165 170 183 181 196 212 202 191 184 171 179 185 189 195 212 223 185 155 179 31 356 226
194 196 197 199 200 190 187 181 166 168 177 181 181 178 175 175 170 162 172 180 172 173 182 191 193 199 216 208 200 191 173 173 194 201 198 203 225 210 178 159 108 306 297
195 195 192 187 182 179 174 161 162 168 176 186 191 189 182 178 171 177 186 184 172 180 187 189 189 200 230 221 208 187 164 181 219 229 213 206 217 229 206 172 211 277 290
174 170 160 152 161 172 160 159 170 177 195 201 197 190 184 182 184 188 185 175 175 187 184 191 198 202 220 224 213 190 171 189 224 241 241 230 224 233 224 200 205 247 267
153 148 145 158 174 163 156 167 178 201 209 193 180 178 184 187 186 182 177 169 167 166 175 193 214 217 224 229 219 203 190 198 208 223 240 243 239 238 234 222 216 240 249
121 137 146 161 160 156 161 175 201 209 176 163 170 179 181 183 180 172 174 169 165 170 186 197 229 245 244 234 231 221 212 204 200 223 233 238 241 242 240 237 242 251 256
128 138 145 147 148 164 172 188 206 168 154 159 173 178 174 178 171 171 173 170 172 181 194 200 220 242 244 247 245 236 224 215 214 228 230 237 247 251 255 253 251 250 235
128 133 131 139 164 182 184 189 168 153 155 166 175 172 171 175 173 174 178 180 187 194 200 208 222 234 240 239 237 237 237 228 230 241 248 249 255 247 251 262 266 249 231
132 136 146 161 182 179 184 173 155 154 158 165 169 170 173 174 179 187 198 200 207 203 204 214 213 214 234 239 224 216 222 218 221 215 231 245 258 258 264 264 263 255 250
137 131 141 157 170 163 175 176 167 162 159 162 169 173 174 175 177 181 216 242 230 228 222 219 215 228 233 239 225 224 228 225 211 196 229 237 237 242 247 251 258 252 248
Height
1551 1553 1554 1556 1558 1559 1560 1561 1562 1562 1563 1563 1563 1563 1562 1562 1562 1561 1560 1560 1559 1558 1557 1556 1555 1555 1554 1554 1554 1555 1555 1555 1556 1556 1557 1557 1557 1557 1556 1556 1556 1555 1555
1550 1552 1554 1556 1558 1559 1560 1561 1562 1563 1563 1564 1564 1564 1563 1563 1563 1562 1562 1561 1560 1559 1558 1557 1556 1556 1555 1555 1555 1555 1556 1556 1557 1557 1557 1558 1560 1558 1558 1558 1557 1557 1556
1548 1551 1553 1555 1557 1559 1560 1562 1563 1563 1564 1564 1564 1564 1564 1564 1563 1563 1562 1562 1561 1560 1559 1559 1558 1557 1557 1556 1556 1556 1557 1557 1558 1558 1559 1559 1559 1560 1560 1559 1559 1558 1558
1547 1550 1552 1554 1556 1559 1561 1562 1563 1564 1564 1564 1565 1565 1565 1564 1564 1564 1563 1563 1562 1561 1561 1560 1559 1559 1558 1557 1557 1557 1557 1558 1558 1558 1558 1559 1559 1560 1561 1561 1560 1560 1559
1545 1548 1550 1553 1556 1558 1560 1562 1563 1563 1564 1565 1565 1565 1565 1565 1565 1564 1564 1563 1563 1562 1562 1561 1561 1560 1559 1559 1558 1558 1558 1558 1559 1559 1559 1559 1560 1560 1560 1561 1562 1561 1561
1543 1546 1549 1552 1554 1557 1559 1560 1562 1563 1564 1564 1565 1565 1565 1565 1565 1564 1564 1564 1564 1563 1563 1562 1562 1561 1561 1560 1560 1559 1559 1559 1559 1560 1560 1560 1560 1560 1561 1561 1561 1562 1562
1539 1543 1546 1549 1552 1554 1557 1559 1560 1562 1563 1564 1564 1564 1565 1565 1565 1565 1564 1564 1564 1564 1563 1563 1563 1562 1562 1561 1561 1561 1561 1561 1560 1560 1561 1561 1561 1561 1562 1562 1562 1562 1562
1536 1539 1543 1546 1549 1552 1555 1557 1559 1560 1562 1563 1563 1564 1564 1564 1564 1564 1564 1564 1564 1564 1564 1564 1563 1563 1563 1563 1562 1562 1562 1562 1562 1562 1562 1562 1562 1562 1562 1563 1563 1563 1563
1532 1536 1540 1544 1547 1550 1552 1555 1557 1559 1560 1561 1562 1563 1563 1564 1564 1564 1564 1564 1564 1564 1564 1564 1564 1564 1564 1563 1563 1563 1563 1563 1563 1563 1563 1563 1563 1563 1563 1563 1563 1564 1563
1529 1533 1537 1541 1544 1547 1550 1553 1555 1557 1559 1560 1561 1561 1562 1563 1563 1563 1563 1563 1564 1564 1564 1564 1564 1564 1564 1564 1564 1564 1564 1564 1564 1564 1564 1564 1564 1564 1564 1564 1564 1564 1564
1526 1530 1534 1538 1542 1545 1548 1551 1553 1555 1556 1558 1559 1560 1561 1561 1562 1562 1562 1562 1563 1563 1563 1564 1564 1564 1564 1565 1564 1565 1565 1565 1565 1565 1565 1565 1565 1565 1565 1565 1564 1564 1563
1525 1529 1533 1536 1540 1543 1546 1548 1550 1553 1554 1556 1557 1558 1559 1559 1560 1560 1561 1561 1561 1562 1563 1563 1564 1564 1564 1565 1565 1565 1565 1565 1565 1565 1565 1565 1565 1565 1565 1565 1564 1564 1563
1524 1527 1531 1534 1537 1540 1543 1546 1548 1550 1552 1554 1555 1556 1557 1557 1558 1559 1559 1560 1560 1561 1561 1562 1563 1563 1564 1564 1564 1565 1565 1565 1565 1565 1565 1565 1565 1565 1565 1564 1564 1563 1562
1522 1525 1528 1531 1535 1538 1541 1543 1546 1548 1550 1551 1553 1554 1555 1555 1556 1557 1558 1558 1559 1559 1560 1561 1562 1562 1563 1564 1564 1564 1564 1565 1565 1565 1565 1565 1565 1564 1564 1563 1563 1562 1561
1520 1522 1525 1529 1532 1535 1538 1541 1543 1545 1547 1549 1550 1551 1553 1554 1554 1555 1556 1557 1557 1558 1559 1560 1560 1561 1562 1562 1563 1563 1564 1564 1564 1564 1564 1564 1564 1563 1563 1562 1562 1561 1560
1517 1520 1523 1526 1529 1532 1535 1538 1540 1542 1544 1546 1548 1549 1550 1551 1552 1553 1554 1555 1556 1557 1557 1558 1559 1560 1560 1561 1561 1562 1562 1562 1562 1563 1563 1563 1562 1562 1561 1561 1560 1560 1558
1515 1518 1520 1523 1526 1529 1532 1534 1537 1539 1542 1543 1545 1546 1548 1549 1550 1551 1552 1553 1554 1555 1556 1556 1557 1558 1559 1559 1560 1560 1560 1560 1560 1560 1561 1560 1560 1560 1559 1559 1558 1557 1556
1513 1516 1518 1521 1524 1527 1529 1532 1534 1536 1538 1540 1542 1544 1545 1547 1548 1549 1550 1551 1552 1553 1554 1554 1555 1556 1556 1557 1557 1558 1558 1558 1558 1558 1558 1558 1558 1557 1557 1556 1555 1554 1553
1511 1514 1516 1519 1522 1524 1527 1529 1531 1533 1535 1537 1539 1541 1543 1544 1545 1546 1547 1549 1550 1550 1551 1552 1553 1553 1554 1555 1555 1555 1555 1555 1555 1555 1555 1555 1555 1554 1554 1553 1552 1551 1550
1511 1513 1515 1517 1520 1522 1524 1526 1528 1530 1532 1534 1536 1538 1540 1541 1542 1544 1545 1546 1547 1548 1549 1549 1550 1550 1551 1552 1552 1552 1552 1552 1552 1552 1552 1551 1551 1551 1550 1549 1548 1547 1546
1509 1511 1513 1515 1517 1520 1522 1523 1525 1527 1529 1532 1534 1535 1537 1538 1539 1541 1542 1543 1544 1545 1545 1546 1547 1547 1548 1548 1548 1548 1548 1548 1548 1548 1548 1548 1547 1547 1546 1545 1544 1543 1543
1508 1509 1511 1513 1515 1517 1519 1521 1522 1525 1527 1529 1531 1532 1534 1535 1536 1538 1539 1539 1540 1541 1542 1542 1543 1543 1544 1544 1545 1545 1545 1545 1544 1544 1544 1544 1543 1543 1542 1541 1540 1539 1538
1506 1508 1509 1511 1513 1515 1517 1518 1520 1522 1524 1526 1527 1529 1530 1532 1533 1534 1535 1536 1536 1537 1538 1538 1539 1539 1540 1540 1541 1541 1541 1540 1540 1540 1539 1539 1539 1538 1537 1536 1535 1534 1533
1505 1507 1508 1510 1511 1513 1515 1516 1518 1520 1521 1523 1524 1525 1526 1528 1529 1530 1531 1532 1532 1533 1534 1534 1535 1535 1536 1536 1536 1536 1536 1536 1535 1535 1534 1534 1533 1532 1532 1531 1530 1529 1527
1504 1505 1507 1508 1509 1511 1512 1514 1516 1517 1518 1519 1521 1522 1523 1524 1525 1526 1527 1528 1529 1530 1530 1530 1531 1531 1531 1531 1532 1531 1531 1531 1530 1530 1529 1528 1527 1526 1525 1525 1524 1523 1522
1503 1504 1505 1506 1508 1509 1510 1512 1513 1514 1515 1516 1517 1518 1519 1520 1521 1522 1523 1524 1525 1525 1526 1526 1527 1526 1527 1527 1527 1526 1526 1526 1525 1524 1523 1522 1521 1520 1519 1518 1517 1516 1515